| time (UTC) | temp F | wind direction | speed MPH | gust MPH | rain 1hr in | rain 24hr in | rain mn in | humidity % | barometer mb |
| 20260906165202 | 84 | 184 | 3.0 | 4.0 | 0.00 | 0.00 | 0.00 | 71 | 101.3 |
| 20260906164702 | 84 | 203 | 1.0 | 4.0 | 0.00 | 0.00 | 0.00 | 71 | 101.3 |
| 20260906164202 | 83 | 309 | 0.0 | 1.0 | 0.00 | 0.00 | 0.00 | 72 | 101.3 |
| 20260906163702 | 83 | 126 | 0.0 | 1.0 | 0.00 | 0.00 | 0.00 | 72 | 101.3 |
| 20260906163202 | 84 | 199 | 3.0 | 3.0 | 0.00 | 0.00 | 0.00 | 72 | 101.3 |
| 20260906162202 | 84 | 225 | 0.0 | 2.0 | 0.00 | 0.00 | 0.00 | 68 | 101.4 |
| 20260906161702 | 83 | 129 | 0.0 | 1.0 | 0.00 | 0.00 | 0.00 | 67 | 101.4 |
| 20260906161202 | 82 | 315 | 0.0 | 1.0 | 0.00 | 0.00 | 0.00 | 69 | 101.4 |
| 20260906160702 | 82 | 193 | 0.0 | 2.0 | 0.00 | 0.00 | 0.00 | 69 | 101.4 |
| 20260906160202 | 82 | 240 | 1.0 | 4.0 | 0.00 | 0.00 | 0.00 | 71 | 101.3 |
| 20260906155702 | 82 | 194 | 2.0 | 2.0 | 0.00 | 0.00 | 0.00 | 73 | 101.3 |
| 20260906155202 | 82 | 207 | 1.0 | 4.0 | 0.00 | 0.00 | 0.00 | 74 | 101.3 |
| 20260906154702 | 82 | 233 | 0.0 | 2.0 | 0.00 | 0.00 | 0.00 | 75 | 101.3 |
| 20260906154202 | 82 | 164 | 0.0 | 5.0 | 0.00 | 0.00 | 0.00 | 75 | 101.3 |
| 20260906153702 | 82 | 222 | 1.0 | 3.0 | 0.00 | 0.00 | 0.00 | 76 | 101.3 |
| 20260906153202 | 81 | 183 | 3.0 | 4.0 | 0.00 | 0.00 | 0.00 | 77 | 101.3 |
| 20260906152202 | 81 | 239 | 1.0 | 3.0 | 0.00 | 0.00 | 0.00 | 76 | 101.3 |
| 20260906151702 | 81 | 230 | 4.0 | 5.0 | 0.00 | 0.00 | 0.00 | 76 | 101.3 |
| 20260906151202 | 81 | 119 | 0.0 | 3.0 | 0.00 | 0.00 | 0.00 | 77 | 101.3 |
| 20260906150702 | 81 | 180 | 1.0 | 5.0 | 0.00 | 0.00 | 0.00 | 77 | 101.3 |
| 20260906150202 | 81 | 190 | 4.0 | 4.0 | 0.00 | 0.00 | 0.00 | 77 | 101.3 |
| 20260906145201 | 81 | 166 | 3.0 | 5.0 | 0.00 | 0.00 | 0.00 | 77 | 101.3 |
| 20260906144201 | 81 | 235 | 2.0 | 5.0 | 0.00 | 0.00 | 0.00 | 77 | 101.3 |
| 20260906143202 | 81 | 236 | 0.0 | 3.0 | 0.00 | 0.00 | 0.00 | 76 | 101.3 |
| 20260906142702 | 81 | 200 | 2.0 | 3.0 | 0.00 | 0.00 | 0.00 | 76 | 101.3 |
| 20260906142202 | 81 | 208 | 2.0 | 3.0 | 0.00 | 0.00 | 0.00 | 76 | 101.3 |
| 20260906141702 | 81 | 177 | 2.0 | 4.0 | 0.00 | 0.00 | 0.00 | 76 | 101.3 |
| 20260906140701 | 80 | 212 | 1.0 | 1.0 | 0.00 | 0.00 | 0.00 | 77 | 101.3 |
| 20260906140202 | 80 | 238 | 0.0 | 3.0 | 0.00 | 0.00 | 0.00 | 77 | 101.3 |
| 20260906135202 | 80 | 177 | 0.0 | 2.0 | 0.00 | 0.00 | 0.00 | 78 | 101.3 |
| 20260906134202 | 80 | 331 | 0.0 | 2.0 | 0.00 | 0.00 | 0.00 | 78 | 101.3 |
| 20260906133702 | 80 | 192 | 1.0 | 3.0 | 0.00 | 0.00 | 0.00 | 79 | 101.3 |
| 20260906132702 | 80 | 181 | 2.0 | 3.0 | 0.00 | 0.00 | 0.00 | 79 | 101.3 |
| 20260906132202 | 80 | 210 | 2.0 | 3.0 | 0.00 | 0.00 | 0.00 | 79 | 101.3 |
| 20260906131702 | 80 | 156 | 0.0 | 4.0 | 0.00 | 0.00 | 0.00 | 79 | 101.3 |
| 20260906131202 | 80 | 208 | 1.0 | 4.0 | 0.00 | 0.00 | 0.00 | 79 | 101.3 |
| 20260906130702 | 80 | 189 | 1.0 | 3.0 | 0.00 | 0.00 | 0.00 | 79 | 101.3 |
| 20260906130202 | 79 | 206 | 2.0 | 3.0 | 0.00 | 0.00 | 0.00 | 81 | 101.2 |
| 20260906125202 | 78 | 177 | 1.0 | 3.0 | 0.00 | 0.00 | 0.00 | 82 | 101.2 |
| 20260906124702 | 78 | 151 | 0.0 | 2.0 | 0.00 | 0.00 | 0.00 | 83 | 101.2 |
| 20260906124202 | 78 | 206 | 1.0 | 2.0 | 0.00 | 0.00 | 0.00 | 83 | 101.2 |
| 20260906123702 | 77 | 188 | 1.0 | 2.0 | 0.00 | 0.00 | 0.00 | 84 | 101.2 |
| 20260906123202 | 77 | 209 | 1.0 | 2.0 | 0.00 | 0.00 | 0.00 | 84 | 101.2 |
| 20260906122702 | 77 | 218 | 1.0 | 2.0 | 0.00 | 0.00 | 0.00 | 84 | 101.1 |
| 20260906122202 | 77 | 142 | 1.0 | 1.0 | 0.00 | 0.00 | 0.00 | 83 | 101.1 |
| 20260906121702 | 77 | 75 | 0.0 | 2.0 | 0.00 | 0.00 | 0.00 | 83 | 101.1 |
| 20260906121202 | 77 | 201 | 0.0 | 2.0 | 0.00 | 0.00 | 0.00 | 83 | 101.1 |
| 20260906120702 | 77 | 235 | 1.0 | 2.0 | 0.00 | 0.00 | 0.00 | 83 | 101.1 |
| 20260906120202 | 77 | 209 | 0.0 | 3.0 | 0.00 | 0.00 | 0.00 | 83 | 101.1 |
| 20260906115702 | 77 | 125 | 0.0 | 1.0 | 0.00 | 0.00 | 0.00 | 83 | 101.1 |
| 20260906115202 | 77 | 224 | 0.0 | 2.0 | 0.00 | 0.00 | 0.00 | 83 | 101.1 |
| 20260906113702 | 77 | 138 | 0.0 | 1.0 | 0.00 | 0.00 | 0.00 | 83 | 101.1 |
| 20260906113202 | 77 | 12 | 1.0 | 2.0 | 0.00 | 0.00 | 0.00 | 83 | 101.1 |
| 20260906112702 | 78 | 145 | 0.0 | 2.0 | 0.00 | 0.00 | 0.00 | 83 | 101.1 |
| 20260906112203 | 78 | 248 | 0.0 | 1.0 | 0.00 | 0.00 | 0.00 | 83 | 101.1 |
| 20260906111702 | 78 | 163 | 0.0 | 1.0 | 0.00 | 0.00 | 0.00 | 82 | 101.1 |
| 20260906111202 | 78 | 159 | 1.0 | 2.0 | 0.00 | 0.00 | 0.00 | 81 | 101.1 |
| 20260906110201 | 79 | 195 | 0.0 | 1.0 | 0.00 | 0.00 | 0.00 | 80 | 101.1 |
| 20260906105702 | 79 | 180 | 0.0 | 2.0 | 0.00 | 0.00 | 0.00 | 80 | 101.1 |
| 20260906104203 | 79 | 256 | 1.0 | 2.0 | 0.00 | 0.00 | 0.00 | 78 | 101.1 |
| 20260906103702 | 79 | 173 | 1.0 | 4.0 | 0.00 | 0.00 | 0.00 | 78 | 101.1 |
| 20260906103202 | 80 | 204 | 2.0 | 3.0 | 0.00 | 0.00 | 0.00 | 78 | 101.1 |
| 20260906102703 | 80 | 239 | 2.0 | 3.0 | 0.00 | 0.00 | 0.00 | 78 | 101.1 |
| 20260906102202 | 80 | 279 | 1.0 | 3.0 | 0.00 | 0.00 | 0.00 | 77 | 101.1 |
| 20260906101702 | 80 | 237 | 1.0 | 4.0 | 0.00 | 0.00 | 0.00 | 77 | 101.1 |
| 20260906101202 | 80 | 192 | 2.0 | 4.0 | 0.00 | 0.00 | 0.00 | 77 | 101.1 |
| 20260906100703 | 80 | 262 | 1.0 | 3.0 | 0.00 | 0.00 | 0.00 | 77 | 101.1 |
| 20260906100202 | 80 | 228 | 2.0 | 4.0 | 0.00 | 0.00 | 0.00 | 77 | 101.1 |
| 20260906095701 | 80 | 247 | 2.0 | 4.0 | 0.00 | 0.00 | 0.00 | 77 | 101.1 |
| 20260906095202 | 80 | 201 | 3.0 | 4.0 | 0.00 | 0.00 | 0.00 | 76 | 101.1 |
| 20260906094702 | 80 | 255 | 2.0 | 4.0 | 0.00 | 0.00 | 0.00 | 76 | 101.1 |
| 20260906094202 | 80 | 296 | 4.0 | 5.0 | 0.00 | 0.00 | 0.00 | 76 | 101.1 |
| 20260906093702 | 80 | 244 | 2.0 | 6.0 | 0.00 | 0.00 | 0.00 | 76 | 101.1 |
| 20260906093202 | 80 | 253 | 2.0 | 3.0 | 0.00 | 0.00 | 0.00 | 76 | 101.1 |
| 20260906092702 | 80 | 229 | 3.0 | 5.0 | 0.00 | 0.00 | 0.00 | 75 | 101.1 |
| 20260906091202 | 81 | 244 | 2.0 | 4.0 | 0.00 | 0.00 | 0.00 | 75 | 101.1 |
| 20260906090702 | 81 | 242 | 2.0 | 4.0 | 0.00 | 0.00 | 0.00 | 75 | 101.1 |
| 20260906090202 | 81 | 209 | 3.0 | 4.0 | 0.00 | 0.00 | 0.00 | 75 | 101.0 |
| 20260906085702 | 81 | 277 | 2.0 | 4.0 | 0.00 | 0.00 | 0.00 | 75 | 101.0 |
| 20260906085202 | 81 | 259 | 2.0 | 6.0 | 0.00 | 0.00 | 0.00 | 74 | 101.0 |
| 20260906084704 | 81 | 210 | 2.0 | 3.0 | 0.00 | 0.00 | 0.00 | 74 | 101.0 |
| 20260906084202 | 81 | 221 | 4.0 | 4.0 | 0.00 | 0.00 | 0.00 | 74 | 101.0 |
| 20260906083202 | 81 | 256 | 2.0 | 6.0 | 0.00 | 0.00 | 0.00 | 73 | 101.1 |
| 20260906082703 | 81 | 245 | 3.0 | 7.0 | 0.00 | 0.00 | 0.00 | 73 | 101.1 |
| 20260906082202 | 82 | 198 | 3.0 | 7.0 | 0.00 | 0.00 | 0.00 | 73 | 101.1 |
| 20260906081702 | 82 | 231 | 2.0 | 5.0 | 0.00 | 0.00 | 0.00 | 73 | 101.1 |
| 20260906081202 | 82 | 207 | 3.0 | 3.0 | 0.00 | 0.00 | 0.00 | 73 | 101.1 |
| 20260906080702 | 82 | 225 | 4.0 | 5.0 | 0.00 | 0.00 | 0.00 | 73 | 101.1 |
| 20260906080202 | 82 | 234 | 1.0 | 3.0 | 0.00 | 0.00 | 0.00 | 72 | 101.1 |
| 20260906075702 | 82 | 210 | 2.0 | 5.0 | 0.00 | 0.00 | 0.00 | 72 | 101.1 |
| 20260906074202 | 82 | 198 | 2.0 | 5.0 | 0.00 | 0.00 | 0.00 | 72 | 101.1 |
| 20260906073702 | 82 | 212 | 2.0 | 3.0 | 0.00 | 0.00 | 0.00 | 71 | 101.1 |
| 20260906073202 | 82 | 247 | 2.0 | 10.0 | 0.00 | 0.00 | 0.00 | 71 | 101.1 |
| 20260906072702 | 82 | 256 | 0.0 | 4.0 | 0.00 | 0.00 | 0.00 | 71 | 101.1 |
| 20260906071702 | 83 | 252 | 3.0 | 4.0 | 0.00 | 0.00 | 0.00 | 71 | 101.1 |
| 20260906071202 | 83 | 229 | 3.0 | 6.0 | 0.00 | 0.00 | 0.00 | 71 | 101.1 |
| 20260906070702 | 83 | 232 | 2.0 | 5.0 | 0.00 | 0.00 | 0.00 | 71 | 101.1 |
| 20260906070203 | 83 | 245 | 2.0 | 4.0 | 0.00 | 0.00 | 0.00 | 71 | 101.1 |
| 20260906065702 | 83 | 208 | 2.0 | 7.0 | 0.00 | 0.00 | 0.00 | 71 | 101.1 |
| 20260906065202 | 83 | 203 | 5.0 | 6.0 | 0.00 | 0.00 | 0.00 | 70 | 101.1 |
| 20260906064702 | 83 | 230 | 2.0 | 6.0 | 0.00 | 0.00 | 0.00 | 70 | 101.1 |
| 20260906064202 | 83 | 231 | 2.0 | 3.0 | 0.00 | 0.00 | 0.00 | 70 | 101.1 |
| 20260906063702 | 83 | 200 | 3.0 | 7.0 | 0.00 | 0.00 | 0.00 | 70 | 101.1 |
| 20260906063202 | 83 | 241 | 2.0 | 5.0 | 0.00 | 0.00 | 0.00 | 70 | 101.2 |
| 20260906062702 | 83 | 250 | 2.0 | 5.0 | 0.00 | 0.00 | 0.00 | 70 | 101.2 |
| 20260906062201 | 84 | 212 | 2.0 | 6.0 | 0.00 | 0.00 | 0.00 | 69 | 101.2 |
| 20260906061704 | 83 | 215 | 5.0 | 7.0 | 0.00 | 0.00 | 0.00 | 69 | 101.2 |
| 20260906061202 | 83 | 220 | 1.0 | 4.0 | 0.00 | 0.00 | 0.00 | 69 | 101.2 |
| 20260906060702 | 83 | 220 | 3.0 | 6.0 | 0.00 | 0.00 | 0.00 | 69 | 101.2 |
| 20260906060202 | 84 | 221 | 4.0 | 5.0 | 0.00 | 0.00 | 0.00 | 69 | 101.1 |
| 20260906055702 | 84 | 221 | 4.0 | 4.0 | 0.00 | 0.00 | 0.00 | 69 | 101.1 |
| 20260906055202 | 83 | 226 | 3.0 | 5.0 | 0.00 | 0.00 | 0.00 | 69 | 101.1 |
| 20260906053702 | 83 | 216 | 1.0 | 4.0 | 0.00 | 0.00 | 0.00 | 69 | 101.1 |
| 20260906053202 | 83 | 217 | 2.0 | 4.0 | 0.00 | 0.00 | 0.00 | 69 | 101.2 |
| 20260906052702 | 83 | 212 | 2.0 | 4.0 | 0.00 | 0.00 | 0.00 | 69 | 101.2 |
| 20260906052202 | 83 | 213 | 3.0 | 5.0 | 0.00 | 0.00 | 0.00 | 68 | 101.2 |
| 20260906051702 | 83 | 235 | 1.0 | 3.0 | 0.00 | 0.00 | 0.00 | 68 | 101.2 |
| 20260906050702 | 83 | 212 | 1.0 | 4.0 | 0.00 | 0.00 | 0.00 | 69 | 101.2 |
| 20260906050202 | 83 | 199 | 1.0 | 4.0 | 0.00 | 0.00 | 0.00 | 69 | 101.1 |
| 20260906045702 | 83 | 192 | 1.0 | 3.0 | 0.00 | 0.00 | 0.00 | 69 | 101.1 |
| 20260906045202 | 83 | 203 | 0.0 | 2.0 | 0.00 | 0.00 | 0.00 | 68 | 101.1 |
| 20260906044701 | 83 | 199 | 2.0 | 2.0 | 0.00 | 0.00 | 0.00 | 68 | 101.1 |
| 20260906044202 | 83 | 196 | 2.0 | 3.0 | 0.00 | 0.00 | 0.00 | 68 | 101.1 |
| 20260906043702 | 83 | 192 | 2.0 | 5.0 | 0.00 | 0.00 | 0.00 | 68 | 101.1 |
| 20260906042702 | 83 | 204 | 2.0 | 4.0 | 0.00 | 0.00 | 0.00 | 67 | 101.2 |
| 20260906042202 | 83 | 117 | 0.0 | 3.0 | 0.00 | 0.00 | 0.00 | 67 | 101.2 |
| 20260906041702 | 83 | 177 | 1.0 | 3.0 | 0.00 | 0.00 | 0.00 | 67 | 101.2 |
| 20260906041202 | 83 | 180 | 1.0 | 5.0 | 0.00 | 0.00 | 0.00 | 66 | 101.2 |
| 20260906040702 | 84 | 208 | 4.0 | 4.0 | 0.00 | 0.00 | 0.00 | 66 | 101.2 |
| 20260906040202 | 84 | 205 | 1.0 | 6.0 | 0.00 | 0.00 | 0.00 | 66 | 101.1 |
| 20260906035201 | 84 | 169 | 0.0 | 2.0 | 0.00 | 0.00 | 0.00 | 65 | 101.1 |
| 20260906034202 | 84 | 106 | 1.0 | 3.0 | 0.00 | 0.00 | 0.00 | 64 | 101.1 |
| 20260906033702 | 84 | 129 | 0.0 | 2.0 | 0.00 | 0.00 | 0.00 | 63 | 101.1 |
| 20260906033202 | 85 | 196 | 0.0 | 2.0 | 0.00 | 0.00 | 0.00 | 63 | 101.1 |
| 20260906032702 | 85 | 145 | 0.0 | 2.0 | 0.00 | 0.00 | 0.00 | 62 | 101.1 |
| 20260906032202 | 85 | 235 | 0.0 | 2.0 | 0.00 | 0.00 | 0.00 | 62 | 101.1 |
| 20260906031702 | 85 | 156 | 2.0 | 2.0 | 0.00 | 0.00 | 0.00 | 61 | 101.1 |
| 20260906030702 | 86 | 122 | 0.0 | 2.0 | 0.00 | 0.00 | 0.00 | 60 | 101.1 |
| 20260906030202 | 86 | 207 | 0.0 | 2.0 | 0.00 | 0.00 | 0.00 | 59 | 101.1 |
| 20260906025703 | 86 | 144 | 1.0 | 2.0 | 0.00 | 0.00 | 0.00 | 59 | 101.1 |
| 20260906025202 | 86 | 119 | 0.0 | 3.0 | 0.00 | 0.00 | 0.00 | 58 | 101.1 |
| 20260906024202 | 87 | 115 | 2.0 | 2.0 | 0.00 | 0.00 | 0.00 | 57 | 101.0 |
| 20260906023202 | 87 | 224 | 0.0 | 2.0 | 0.00 | 0.00 | 0.00 | 55 | 101.0 |
| 20260906022702 | 88 | 116 | 1.0 | 2.0 | 0.00 | 0.00 | 0.00 | 55 | 101.0 |
| 20260906022202 | 88 | 196 | 0.0 | 1.0 | 0.00 | 0.00 | 0.00 | 54 | 101.0 |
| 20260906021701 | 88 | 202 | 1.0 | 1.0 | 0.00 | 0.00 | 0.00 | 54 | 101.0 |
| 20260906021203 | 88 | 148 | 1.0 | 2.0 | 0.00 | 0.00 | 0.00 | 54 | 101.0 |
| 20260906020702 | 88 | 142 | 1.0 | 1.0 | 0.00 | 0.00 | 0.00 | 53 | 101.0 |
| 20260906020203 | 88 | 164 | 0.0 | 1.0 | 0.00 | 0.00 | 0.00 | 53 | 101.0 |
| 20260906015702 | 89 | 202 | 2.0 | 2.0 | 0.00 | 0.00 | 0.00 | 53 | 101.0 |
| 20260906015204 | 89 | 115 | 1.0 | 2.0 | 0.00 | 0.00 | 0.00 | 53 | 101.0 |
| 20260906014702 | 89 | 120 | 0.0 | 1.0 | 0.00 | 0.00 | 0.00 | 52 | 101.0 |
| 20260906014202 | 89 | 114 | 2.0 | 4.0 | 0.00 | 0.00 | 0.00 | 52 | 101.0 |
| 20260906013202 | 90 | 121 | 0.0 | 4.0 | 0.00 | 0.00 | 0.00 | 52 | 101.0 |
| 20260906012702 | 90 | 180 | 2.0 | 5.0 | 0.00 | 0.00 | 0.00 | 52 | 101.0 |
| 20260906012202 | 90 | 147 | 1.0 | 3.0 | 0.00 | 0.00 | 0.00 | 51 | 101.0 |
| 20260906011702 | 90 | 221 | 1.0 | 5.0 | 0.00 | 0.00 | 0.00 | 50 | 101.0 |
| 20260906011201 | 91 | 120 | 2.0 | 6.0 | 0.00 | 0.00 | 0.00 | 50 | 101.0 |
| 20260906010202 | 91 | 89 | 1.0 | 2.0 | 0.00 | 0.00 | 0.00 | 48 | 101.0 |
| 20260906005702 | 92 | 283 | 1.0 | 2.0 | 0.00 | 0.00 | 0.00 | 47 | 101.0 |
| 20260906005202 | 92 | 172 | 4.0 | 4.0 | 0.00 | 0.00 | 0.00 | 47 | 101.0 |
| 20260906004702 | 92 | 112 | 2.0 | 3.0 | 0.00 | 0.00 | 0.00 | 46 | 101.0 |
| 20260906003202 | 93 | 231 | 0.0 | 2.0 | 0.00 | 0.00 | 0.00 | 45 | 101.0 |
| 20260906002703 | 93 | 175 | 2.0 | 2.0 | 0.00 | 0.00 | 0.00 | 45 | 101.0 |
| 20260906002202 | 93 | 248 | 0.0 | 4.0 | 0.00 | 0.00 | 0.00 | 45 | 101.0 |
| 20260906001702 | 94 | 154 | 1.0 | 3.0 | 0.00 | 0.00 | 0.00 | 44 | 101.0 |
| 20260906001202 | 94 | 144 | 1.0 | 4.0 | 0.00 | 0.00 | 0.00 | 42 | 101.0 |
| 20260906000702 | 94 | 203 | 1.0 | 4.0 | 0.00 | 0.00 | 0.00 | 42 | 101.0 |
| 20260906000204 | 95 | 198 | 7.0 | 7.0 | 0.00 | 0.00 | 0.00 | 41 | 101.0 |
| 20260905235702 | 95 | 311 | 0.0 | 3.0 | 0.00 | 0.00 | 0.00 | 39 | 101.0 |
| 20260905235201 | 96 | 148 | 0.0 | 6.0 | 0.00 | 0.00 | 0.00 | 38 | 101.0 |
| 20260905234702 | 96 | 237 | 0.0 | 1.0 | 0.00 | 0.00 | 0.00 | 37 | 101.0 |
| 20260905234202 | 96 | 242 | 0.0 | 4.0 | 0.00 | 0.00 | 0.00 | 37 | 101.0 |
| 20260905233702 | 97 | 234 | 1.0 | 3.0 | 0.00 | 0.00 | 0.00 | 37 | 101.0 |
| 20260905233201 | 96 | 260 | 2.0 | 4.0 | 0.00 | 0.00 | 0.00 | 37 | 101.0 |
| 20260905232702 | 96 | 212 | 0.0 | 2.0 | 0.00 | 0.00 | 0.00 | 38 | 101.0 |
| 20260905232202 | 96 | 153 | 2.0 | 6.0 | 0.00 | 0.00 | 0.00 | 38 | 101.0 |
| 20260905231702 | 96 | 210 | 2.0 | 6.0 | 0.00 | 0.00 | 0.00 | 37 | 101.0 |
| 20260905231202 | 96 | 236 | 1.0 | 5.0 | 0.00 | 0.00 | 0.00 | 37 | 101.0 |
| 20260905230702 | 95 | 293 | 1.0 | 2.0 | 0.00 | 0.00 | 0.00 | 37 | 101.0 |
| 20260905225702 | 96 | 151 | 1.0 | 2.0 | 0.00 | 0.00 | 0.00 | 36 | 100.9 |
| 20260905225202 | 97 | 224 | 1.0 | 3.0 | 0.00 | 0.00 | 0.00 | 36 | 100.9 |
| 20260905224702 | 97 | 99 | 0.0 | 2.0 | 0.00 | 0.00 | 0.00 | 36 | 100.9 |
| 20260905224203 | 95 | 212 | 1.0 | 2.0 | 0.00 | 0.00 | 0.00 | 37 | 100.9 |
| 20260905223702 | 95 | 202 | 2.0 | 3.0 | 0.00 | 0.00 | 0.00 | 37 | 100.9 |
| 20260905223202 | 94 | 221 | 1.0 | 4.0 | 0.00 | 0.00 | 0.00 | 38 | 100.9 |
| 20260905222702 | 94 | 219 | 0.0 | 1.0 | 0.00 | 0.00 | 0.00 | 38 | 101.0 |
| 20260905222202 | 95 | 137 | 0.0 | 2.0 | 0.00 | 0.00 | 0.00 | 38 | 101.0 |
| 20260905221702 | 96 | 278 | 0.0 | 1.0 | 0.00 | 0.00 | 0.00 | 37 | 101.0 |
| 20260905221202 | 96 | 326 | 0.0 | 2.0 | 0.00 | 0.00 | 0.00 | 37 | 101.0 |
| 20260905220702 | 95 | 30 | 1.0 | 3.0 | 0.00 | 0.00 | 0.00 | 36 | 101.0 |
| 20260905220202 | 98 | 144 | 1.0 | 3.0 | 0.00 | 0.00 | 0.00 | 35 | 101.0 |
| 20260905215701 | 96 | 218 | 0.0 | 2.0 | 0.00 | 0.00 | 0.00 | 36 | 101.0 |
| 20260905215202 | 96 | 22 | 0.0 | 2.0 | 0.00 | 0.00 | 0.00 | 36 | 101.0 |
| 20260905214702 | 97 | 202 | 0.0 | 4.0 | 0.00 | 0.00 | 0.00 | 35 | 101.0 |
| 20260905214202 | 97 | 303 | 1.0 | 4.0 | 0.00 | 0.00 | 0.00 | 36 | 101.0 |
| 20260905213702 | 96 | 100 | 1.0 | 2.0 | 0.00 | 0.00 | 0.00 | 36 | 101.0 |
| 20260905213202 | 97 | 230 | 4.0 | 4.0 | 0.00 | 0.00 | 0.00 | 35 | 101.0 |
| 20260905212702 | 97 | 300 | 2.0 | 2.0 | 0.00 | 0.00 | 0.00 | 35 | 101.0 |
| 20260905212202 | 97 | 250 | 3.0 | 4.0 | 0.00 | 0.00 | 0.00 | 35 | 101.0 |
| 20260905211701 | 97 | 234 | 3.0 | 4.0 | 0.00 | 0.00 | 0.00 | 34 | 101.0 |
| 20260905211202 | 97 | 209 | 3.0 | 6.0 | 0.00 | 0.00 | 0.00 | 35 | 101.0 |
| 20260905210702 | 96 | 154 | 0.0 | 2.0 | 0.00 | 0.00 | 0.00 | 35 | 101.0 |
| 20260905210202 | 96 | 320 | 1.0 | 3.0 | 0.00 | 0.00 | 0.00 | 35 | 101.0 |
| 20260905205702 | 96 | 119 | 0.0 | 2.0 | 0.00 | 0.00 | 0.00 | 35 | 101.0 |
| 20260905205202 | 95 | 221 | 2.0 | 2.0 | 0.00 | 0.00 | 0.00 | 37 | 101.0 |
| 20260905204702 | 96 | 231 | 4.0 | 5.0 | 0.00 | 0.00 | 0.00 | 36 | 101.0 |
| 20260905203702 | 96 | 288 | 3.0 | 3.0 | 0.00 | 0.00 | 0.00 | 36 | 101.0 |
| 20260905203202 | 95 | 190 | 1.0 | 4.0 | 0.00 | 0.00 | 0.00 | 37 | 101.0 |
| 20260905202203 | 95 | 214 | 3.0 | 7.0 | 0.00 | 0.00 | 0.00 | 37 | 101.0 |
| 20260905201702 | 96 | 249 | 3.0 | 8.0 | 0.00 | 0.00 | 0.00 | 37 | 101.1 |
| 20260905201202 | 97 | 204 | 4.0 | 8.0 | 0.00 | 0.00 | 0.00 | 36 | 101.1 |
| 20260905200702 | 96 | 212 | 2.0 | 4.0 | 0.00 | 0.00 | 0.00 | 36 | 101.1 |
| 20260905200202 | 95 | 250 | 1.0 | 4.0 | 0.00 | 0.00 | 0.00 | 38 | 101.1 |
| 20260905195702 | 95 | 187 | 2.0 | 4.0 | 0.00 | 0.00 | 0.00 | 38 | 101.1 |
| 20260905195202 | 94 | 283 | 4.0 | 4.0 | 0.00 | 0.00 | 0.00 | 39 | 101.1 |
| 20260905194703 | 95 | 259 | 1.0 | 4.0 | 0.00 | 0.00 | 0.00 | 39 | 101.1 |
| 20260905194202 | 95 | 265 | 2.0 | 3.0 | 0.00 | 0.00 | 0.00 | 39 | 101.1 |
| 20260905193702 | 93 | 113 | 1.0 | 2.0 | 0.00 | 0.00 | 0.00 | 39 | 101.1 |
| 20260905193202 | 95 | 271 | 4.0 | 6.0 | 0.00 | 0.00 | 0.00 | 38 | 101.1 |
| 20260905192702 | 94 | 220 | 6.0 | 7.0 | 0.00 | 0.00 | 0.00 | 39 | 101.1 |
| 20260905192202 | 95 | 293 | 4.0 | 6.0 | 0.00 | 0.00 | 0.00 | 38 | 101.1 |
| 20260905191702 | 95 | 203 | 5.0 | 8.0 | 0.00 | 0.00 | 0.00 | 38 | 101.2 |
| 20260905191202 | 94 | 258 | 2.0 | 6.0 | 0.00 | 0.00 | 0.00 | 39 | 101.2 |
| 20260905190202 | 95 | 202 | 4.0 | 4.0 | 0.00 | 0.00 | 0.00 | 38 | 101.1 |
| 20260905185702 | 95 | 255 | 4.0 | 4.0 | 0.00 | 0.00 | 0.00 | 39 | 101.1 |
| 20260905185202 | 93 | 150 | 1.0 | 2.0 | 0.00 | 0.00 | 0.00 | 39 | 101.1 |
| 20260905184702 | 94 | 196 | 4.0 | 5.0 | 0.00 | 0.00 | 0.00 | 40 | 101.1 |
| 20260905184202 | 92 | 255 | 0.0 | 4.0 | 0.00 | 0.00 | 0.00 | 41 | 101.2 |
| 20260905183702 | 93 | 278 | 4.0 | 6.0 | 0.00 | 0.00 | 0.00 | 41 | 101.2 |
| 20260905183202 | 94 | 222 | 5.0 | 12.0 | 0.00 | 0.00 | 0.00 | 39 | 101.2 |
| 20260905182702 | 93 | 266 | 2.0 | 4.0 | 0.00 | 0.00 | 0.00 | 42 | 101.3 |
| 20260905181702 | 93 | 238 | 2.0 | 6.0 | 0.00 | 0.00 | 0.00 | 42 | 101.3 |
| 20260905181202 | 92 | 181 | 1.0 | 3.0 | 0.00 | 0.00 | 0.00 | 44 | 101.3 |
| 20260905180702 | 91 | 216 | 2.0 | 4.0 | 0.00 | 0.00 | 0.00 | 45 | 101.3 |
| 20260905180202 | 92 | 161 | 2.0 | 8.0 | 0.00 | 0.00 | 0.00 | 44 | 101.2 |
| 20260905175703 | 92 | 174 | 2.0 | 9.0 | 0.00 | 0.00 | 0.00 | 44 | 101.2 |
| 20260905175202 | 90 | 241 | 3.0 | 5.0 | 0.00 | 0.00 | 0.00 | 50 | 101.2 |
| 20260905174703 | 91 | 221 | 1.0 | 5.0 | 0.00 | 0.00 | 0.00 | 49 | 101.2 |
| 20260905174202 | 92 | 226 | 3.0 | 5.0 | 0.00 | 0.00 | 0.00 | 48 | 101.2 |
| 20260905173703 | 91 | 200 | 3.0 | 5.0 | 0.00 | 0.00 | 0.00 | 49 | 101.2 |
| 20260905173202 | 91 | 177 | 1.0 | 7.0 | 0.00 | 0.00 | 0.00 | 49 | 101.2 |
| 20260905172203 | 91 | 255 | 4.0 | 6.0 | 0.00 | 0.00 | 0.00 | 49 | 101.3 |
| 20260905171702 | 91 | 289 | 1.0 | 5.0 | 0.00 | 0.00 | 0.00 | 47 | 101.3 |
| 20260905171202 | 91 | 198 | 6.0 | 6.0 | 0.00 | 0.00 | 0.00 | 48 | 101.3 |
| 20260905170702 | 90 | 66 | 0.0 | 5.0 | 0.00 | 0.00 | 0.00 | 50 | 101.3 |
| 20260905170201 | 91 | 166 | 1.0 | 7.0 | 0.00 | 0.00 | 0.00 | 50 | 101.3 |